星链-31538 (STARLINK-31538 )

导读 | 豆包AI

STARLINK-31538是美国太空探索技术公司SpaceX星链互联网卫星群组中的一颗卫星,于2024年4月17日发射,星链计划旨在为全球提供高速低延迟宽带互联网服务,该卫星加入星座后,进一步拓展了星链网络的覆盖范围与服务能力。

Basic Information
目录编号:
59525
目录名称:
STARLINK-31538
国际标识:
2024-073Q
轨道中心:
EARTH
卫星名称:
星链-31538
卫星全名:
星链-31538 (STARLINK-31538 )
卫星状态:
在轨 (已飞行743 天)
发射日期:
2024-04-17 UTC
国别 :
美国 (US)
星等 :
--
Orbit Information
数据来源 国际轨道数据
星历时间: 2026-04-30T03:03:59+0800
6小时前
查看轨道信息
半长轴: 6861.204km
偏心率: 0.0000504
轨道倾角: 43.005°
近地点辐角 277.946°
升交点赤经 29.216°
平近点角 82.134°
近地点: 482.721km
远地点: 483.413km
周期: 94.267分钟
每日圈数: 15.275743
Detailed Information
固有亮度:
5
最大亮度:
1.5
卫星平台:
Starlink v2.0 mini
覆盖范围:
全球
运营商:
太空探索技术公司
运营商所在国:
美国
制造商(研发单位):
太空探索技术公司
制造商所在国:
美国
使用方式:
暂无
Satellite Introduction
星链(Starlink)计划是由太空探索技术公司(SpaceX)提出的一个巨型低轨卫星互联网星座项目,计划在2019年至2024年间在太空搭建由约1.2万颗卫星组成的“星链”网络,其中1584颗将部署在地球上空550千米处的近地轨道,并从2020年开始工作。该卫星仍在工作。
2D Orbit Map
3D Orbit Map
Orbit Altitude Analysis Chart
Orbit Inclination Analysis Chart
Orbit Comprehensive Analysis Chart
View Comprehensive Chart